Terminal Aerodrome Forecast
Issued by NWS

Home | Current Version | Previous Version | Text Only | Print | Product List | Glossary On
Versions: 1 2 3 4 5 6 7 8 9 10 11 12 13 14 15 16 17 18 19 20 21
000
FTUS41 KOKX 261121
TAFSWF
TAF
KSWF 261121Z 2612/2718 35004KT P6SM SKC
     FM261800 31007KT P6SM BKN070
     FM270300 33006KT P6SM SCT050
     FM271400 33012KT P6SM BKN050
      AMD NOT SKED=

USA.gov is the U.S. government's official web portal to all federal, state and local government web resources and services.